CW5897 Weather Reports


time (UTC)temp
C
wind
direction
speed
KPH
gust
KPH
rain 1hr
cm
rain 24hr
cm
rain mn
cm
humidity
%
barometer
mb
20260507104704 7 310 3.2 8.0 0.00 0.48 0.13 94 1005.5
20260507104204 7 310 3.2 4.8 0.00 0.48 0.13 94 1005.5
20260507103703 7 310 3.2 4.8 0.00 0.48 0.13 94 1005.6
20260507102704 7 310 1.6 3.2 0.00 0.48 0.13 94 1005.7
20260507102203 7 310 1.6 4.8 0.00 0.48 0.13 94 1005.8
20260507101704 7 310 3.2 4.8 0.00 0.48 0.13 94 1005.7
20260507101204 7 310 1.6 4.8 0.00 0.48 0.13 94 1005.5
20260507100704 7 310 1.6 8.0 0.03 0.48 0.13 94 1005.5
20260507095204 7 300 3.2 9.7 0.05 0.48 0.13 95 1005.3
20260507094703 7 300 3.2 9.7 0.05 0.48 0.13 95 1005.3
20260507094203 7 300 3.2 9.7 0.05 0.48 0.13 95 1005.2
20260507093703 7 300 3.2 8.0 0.08 0.48 0.13 95 1005.2
20260507093204 7 300 3.2 12.9 0.08 0.48 0.13 95 1005.2
20260507092704 7 300 3.2 4.8 0.08 0.48 0.13 95 1005.2
20260507092203 7 300 3.2 4.8 0.08 0.48 0.13 96 1005.2
20260507091703 7 300 3.2 9.7 0.08 0.48 0.13 96 1005.1
20260507091204 7 300 1.6 4.8 0.08 0.48 0.13 96 1005.1
20260507085703 8 310 0.0 3.2 0.08 0.46 0.10 95 1005.3
20260507085204 8 310 1.6 4.8 0.05 0.43 0.08 95 1005.4
20260507084203 8 310 3.2 4.8 0.05 0.43 0.08 95 1005.6
20260507083703 8 310 1.6 4.8 0.03 0.41 0.05 95 1005.6
20260507083204 8 310 3.2 9.7 0.03 0.41 0.05 95 1005.6
20260507082703 8 310 1.6 4.8 0.03 0.41 0.05 95 1005.6
20260507082204 8 310 3.2 4.8 0.03 0.41 0.05 94 1005.5
20260507081704 8 310 1.6 4.8 0.03 0.41 0.05 95 1005.5
20260507080203 9 310 1.6 4.8 0.05 0.41 0.05 94 1005.4
20260507075704 8 310 1.6 4.8 0.03 0.38 0.03 93 1005.3
20260507075204 8 310 1.6 4.8 0.03 0.38 0.03 93 1005.2
20260507074704 8 310 3.2 9.7 0.03 0.38 0.03 92 1005.3
20260507074203 8 310 3.2 9.7 0.03 0.38 0.03 92 1005.4
20260507073704 8 310 1.6 4.8 0.03 0.38 0.03 92 1005.3
20260507073203 8 310 3.2 8.0 0.03 0.38 0.03 91 1005.4
20260507072703 8 310 1.6 8.0 0.03 0.38 0.03 90 1005.4
20260507072204 8 310 3.2 4.8 0.03 0.38 0.03 89 1005.4
20260507071704 8 310 3.2 8.0 0.03 0.38 0.03 88 1005.3
20260507070204 10 310 4.8 14.5 0.00 0.36 0.00 85 1005.1
20260507065704 9 320 4.8 8.0 0.00 0.36 0.00 84 1004.9
20260507065204 9 320 4.8 9.7 0.00 0.36 0.00 85 1004.7
20260507064704 9 320 3.2 8.0 0.00 0.36 0.00 85 1004.7
20260507064204 9 320 3.2 12.9 0.00 0.36 0.00 85 1004.7
20260507063704 9 320 4.8 9.7 0.00 0.36 0.00 86 1004.8
20260507063203 9 320 4.8 14.5 0.00 0.36 0.00 87 1004.7
20260507062704 9 320 3.2 12.9 0.00 0.36 0.00 87 1004.6
20260507062203 9 320 3.2 8.0 0.00 0.36 0.00 88 1004.7
20260507061703 9 320 3.2 8.0 0.00 0.36 0.00 88 1004.8
20260507061203 9 320 3.2 4.8 0.00 0.36 0.00 88 1005.0
20260507060703 9 320 3.2 4.8 0.00 0.36 0.00 87 1005.0
20260507060204 9 320 8.0 12.9 0.00 0.36 0.00 87 1004.9
20260507055703 10 310 4.8 9.7 0.00 0.36 0.00 87 1004.8
20260507055204 10 310 3.2 8.0 0.00 0.36 0.00 88 1004.9
20260507054704 10 310 3.2 9.7 0.00 0.36 0.00 89 1004.8
20260507054204 10 310 3.2 9.7 0.00 0.36 0.00 89 1004.8
20260507053703 10 310 1.6 4.8 0.00 0.36 0.00 88 1005.1
20260507052704 10 310 4.8 12.9 0.00 0.36 0.00 88 1005.1
20260507052203 10 310 8.0 14.5 0.00 0.36 0.00 90 1005.1
20260507051703 10 310 4.8 16.1 0.00 0.36 0.00 92 1005.2
20260507051203 10 300 4.8 12.9 0.00 0.36 0.00 93 1005.3
20260507050704 10 300 4.8 14.5 0.00 0.36 0.00 94 1005.2
20260507050204 10 300 8.0 14.5 0.00 0.36 0.00 94 1004.9
20260507045704 11 290 4.8 14.5 0.00 0.36 0.00 94 1005.0
20260507044704 11 290 3.2 9.7 0.00 0.36 0.00 94 1004.9
20260507043704 11 280 3.2 9.7 0.00 0.36 0.00 94 1005.0
20260507043203 11 280 3.2 9.7 0.00 0.36 0.00 94 1005.1
20260507042704 11 280 3.2 8.0 0.00 0.36 0.00 94 1005.0
20260507042203 11 280 3.2 4.8 0.00 0.36 0.00 94 1005.1
20260507041703 11 280 3.2 8.0 0.00 0.36 0.00 94 1005.0
20260507041204 12 280 1.6 4.8 0.00 0.36 0.00 94 1004.9
20260507040703 12 280 4.8 12.9 0.00 0.36 0.00 94 1004.9
20260507040204 12 280 3.2 9.7 0.00 0.36 0.00 93 1004.8
20260507035704 12 280 3.2 9.7 0.00 0.36 0.36 94 1004.9
20260507035204 12 280 4.8 14.5 0.00 0.36 0.36 93 1005.0
20260507034704 12 280 4.8 9.7 0.00 0.36 0.36 94 1005.2
20260507034204 12 280 8.0 19.3 0.00 0.36 0.36 94 1005.0
20260507033704 12 280 9.7 19.3 0.00 0.36 0.36 94 1005.1
20260507033204 13 280 3.2 9.7 0.00 0.36 0.36 96 1004.9
20260507032704 12 290 6.4 19.3 0.00 0.36 0.36 95 1004.9
20260507032203 12 290 6.4 12.9 0.00 0.36 0.36 95 1004.7
20260507031704 12 290 4.8 12.9 0.00 0.36 0.36 96 1004.7
20260507031203 13 280 8.0 12.9 0.00 0.36 0.36 96 1004.5
20260507030704 13 280 3.2 8.0 0.00 0.36 0.36 97 1004.6
20260507030204 13 279 3.2 12.9 0.00 0.36 0.36 97 1004.5
20260507025703 14 230 4.8 12.9 0.00 0.36 0.36 98 1004.4
20260507025204 14 230 4.8 12.9 0.00 0.36 0.36 99 1004.3
20260507024704 14 230 4.8 8.0 0.00 0.36 0.36 99 1004.5
20260507024204 14 230 8.0 16.1 0.00 0.36 0.36 99 1004.4
20260507023704 14 230 3.2 4.8 0.00 0.36 0.36 99 1004.4
20260507022704 13 230 4.8 12.9 0.00 0.36 0.36 100 1004.2
20260507022204 13 230 4.8 14.5 0.00 0.36 0.36 100 1003.9
20260507021703 13 230 4.8 19.3 0.00 0.36 0.36 100 1003.8
20260507021204 13 230 4.8 16.1 0.00 0.36 0.36 100 1004.0
20260507020203 13 230 6.4 22.5 0.00 0.36 0.36 99 1004.1
20260507015704 13 230 3.2 16.1 0.00 0.36 0.36 99 1004.0
20260507014203 13 230 4.8 16.1 0.00 0.36 0.36 99 1004.1
20260507013703 13 230 8.0 14.5 0.00 0.36 0.36 99 1004.2
20260507013204 13 230 4.8 14.5 0.00 0.36 0.36 99 1004.1
20260507012703 13 230 4.8 14.5 0.00 0.36 0.36 99 1004.3
20260507012204 13 230 3.2 12.9 0.00 0.36 0.36 99 1004.0
20260507011204 13 220 4.8 24.1 0.00 0.36 0.36 99 1004.0
20260507010704 13 220 8.0 19.3 0.00 0.36 0.36 99 1004.2
20260507010203 13 220 6.4 19.3 0.00 0.36 0.36 99 1004.2
20260507005204 13 220 4.8 16.1 0.00 0.36 0.36 99 1004.3
20260507004704 13 220 8.0 22.5 0.00 0.36 0.36 99 1004.3
20260507004203 13 220 9.7 20.9 0.00 0.36 0.36 99 1004.2
20260507003703 13 220 8.0 16.1 0.00 0.36 0.36 99 1004.2
20260507003204 13 220 11.3 22.5 0.00 0.36 0.36 99 1004.1
20260507002704 13 220 4.8 16.1 0.00 0.36 0.36 99 1004.2
20260507002204 13 220 9.7 24.1 0.00 0.36 0.36 99 1004.2
20260507001703 13 220 9.7 24.1 0.00 0.36 0.36 99 1004.1
20260507001203 13 220 6.4 16.1 0.00 0.36 0.36 99 1004.1
20260507000704 13 220 6.4 12.9 0.00 0.36 0.36 99 1004.2
20260506235703 13 210 4.8 19.3 0.03 0.36 0.36 99 1004.0
20260506235203 13 210 4.8 16.1 0.03 0.36 0.36 99 1003.8
20260506234204 13 210 9.7 25.7 0.03 0.36 0.36 99 1003.8
20260506233204 13 210 4.8 14.5 0.08 0.36 0.36 98 1003.7
20260506232704 13 210 9.7 19.3 0.10 0.36 0.36 98 1003.8
20260506232203 13 210 9.7 22.5 0.10 0.36 0.36 98 1003.7
20260506231204 13 210 9.7 24.1 0.10 0.36 0.36 99 1003.7
20260506230204 14 210 4.8 19.3 0.13 0.36 0.36 98 1003.6
20260506225703 14 200 9.7 19.3 0.10 0.33 0.33 98 1003.6
20260506225204 14 200 4.8 12.9 0.10 0.33 0.33 98 1003.7
20260506224704 14 200 8.0 19.3 0.10 0.33 0.33 98 1003.7
20260506224203 14 200 4.8 16.1 0.10 0.33 0.33 98 1003.7
20260506223704 14 200 8.0 14.5 0.08 0.30 0.30 98 1003.7
20260506223203 14 200 4.8 16.1 0.05 0.28 0.28 98 1003.7
20260506222704 14 200 8.0 20.9 0.03 0.25 0.25 98 1003.7
20260506221704 14 200 9.7 19.3 0.05 0.25 0.25 98 1003.9
20260506220203 14 200 6.4 12.9 0.05 0.23 0.23 98 1003.9
20260506215704 14 200 6.4 22.5 0.05 0.23 0.23 97 1004.1
20260506215203 14 200 6.4 19.3 0.05 0.23 0.23 97 1004.1
20260506214703 14 200 8.0 22.5 0.05 0.23 0.23 97 1004.0
20260506213704 14 200 8.0 19.3 0.05 0.23 0.23 97 1004.0
20260506213203 14 200 9.7 20.9 0.05 0.23 0.23 97 1004.0
20260506212704 14 200 9.7 19.3 0.05 0.23 0.23 97 1004.2
20260506211704 14 200 8.0 20.9 0.03 0.20 0.20 97 1004.4
20260506210704 15 200 4.8 14.5 0.00 0.18 0.18 97 1004.4
20260506210204 14 200 8.0 19.3 0.00 0.18 0.18 97 1004.3
20260506204703 14 200 8.0 20.9 0.00 0.18 0.18 96 1004.6
20260506204204 14 200 9.7 22.5 0.00 0.18 0.18 96 1004.6
20260506203703 14 200 9.7 20.9 0.00 0.18 0.18 96 1004.6
20260506203204 14 200 8.0 19.3 0.00 0.18 0.18 96 1004.6
20260506202703 14 200 8.0 24.1 0.00 0.18 0.18 96 1004.5
20260506202204 14 200 11.3 22.5 0.03 0.18 0.18 95 1004.6
20260506201704 14 200 11.3 20.9 0.03 0.18 0.18 95 1004.6
20260506201204 15 200 9.7 20.9 0.03 0.18 0.18 95 1004.6
20260506200703 14 200 11.3 29.0 0.05 0.18 0.18 95 1004.6
20260506200204 14 200 11.3 20.9 0.05 0.18 0.18 95 1004.7
20260506195703 15 190 9.7 19.3 0.08 0.18 0.18 95 1004.8
20260506195204 15 190 9.7 19.3 0.08 0.18 0.18 95 1004.8
20260506193704 15 190 8.0 24.1 0.13 0.18 0.18 94 1004.8
20260506193203 15 190 9.7 20.9 0.13 0.18 0.18 94 1004.9
20260506192704 15 190 9.7 22.5 0.15 0.18 0.18 94 1005.0
20260506192204 15 190 9.7 19.3 0.13 0.15 0.15 95 1005.1
20260506191704 15 190 6.4 19.3 0.15 0.15 0.15 94 1005.0
20260506191204 15 190 8.0 14.5 0.15 0.15 0.15 94 1004.9
20260506190204 15 190 11.3 25.7 0.13 0.13 0.13 92 1004.9
20260506185703 15 210 4.8 19.3 0.10 0.10 0.10 92 1005.0
20260506185204 16 210 9.7 20.9 0.10 0.10 0.10 91 1005.0
20260506184703 16 210 6.4 20.9 0.08 0.08 0.08 90 1004.9
20260506184204 16 210 8.0 25.7 0.08 0.08 0.08 89 1005.0
20260506183704 16 210 6.4 25.7 0.05 0.05 0.05 89 1005.0
20260506183204 16 210 6.4 16.1 0.05 0.05 0.05 88 1005.1
20260506182204 17 210 8.0 19.3 0.03 0.03 0.03 86 1005.3
20260506181704 17 210 6.4 20.9 0.00 0.00 0.00 85 1005.5
20260506181203 17 210 11.3 25.7 0.00 0.00 0.00 84 1005.4
20260506180703 17 210 9.7 22.5 0.00 0.00 0.00 83 1005.6
20260506175704 18 210 11.3 22.5 0.00 0.00 0.00 80 1005.5
20260506175203 18 210 8.0 20.9 0.00 0.00 0.00 79 1005.4
20260506174704 18 210 11.3 29.0 0.00 0.00 0.00 77 1005.5
20260506173704 19 210 20.9 45.1 0.00 0.00 0.00 73 1005.6
20260506172704 20 210 12.9 33.8 0.00 0.00 0.00 69 1005.4
20260506172204 20 210 16.1 27.4 0.00 0.00 0.00 68 1005.5
20260506171203 20 210 12.9 32.2 0.00 0.00 0.00 66 1005.4
20260506170704 20 210 16.1 35.4 0.00 0.00 0.00 67 1005.4
20260506165704 20 200 8.0 22.5 0.00 0.00 0.00 67 1005.4
20260506165204 20 200 14.5 35.4 0.00 0.00 0.00 65 1005.4
20260506164704 21 200 12.9 29.0 0.00 0.00 0.00 65 1005.5
20260506164204 21 200 11.3 29.0 0.00 0.00 0.00 66 1005.7
20260506163704 21 200 8.0 22.5 0.00 0.00 0.00 67 1005.7
20260506163204 20 200 11.3 27.4 0.00 0.00 0.00 67 1005.7
20260506162204 20 200 11.3 24.1 0.00 0.00 0.00 66 1005.8
20260506161703 21 200 16.1 32.2 0.00 0.00 0.00 65 1005.9
20260506161204 20 200 16.1 48.3 0.00 0.00 0.00 65 1005.9
20260506160204 20 200 17.7 40.2 0.00 0.00 0.00 65 1006.0
20260506155704 20 210 16.1 35.4 0.00 0.00 0.00 67 1006.1
20260506155203 20 210 9.7 32.2 0.00 0.00 0.00 67 1006.1
20260506154703 20 210 14.5 33.8 0.00 0.00 0.00 68 1006.1
20260506154204 20 210 11.3 32.2 0.00 0.00 0.00 68 1006.1
20260506153703 20 210 12.9 32.2 0.00 0.00 0.00 69 1006.2
20260506152703 20 210 11.3 24.1 0.00 0.00 0.00 70 1006.3
20260506151704 20 210 11.3 32.2 0.00 0.00 0.00 69 1006.5
20260506151204 20 210 6.4 16.1 0.00 0.00 0.00 70 1006.5
20260506150703 20 210 9.7 24.1 0.00 0.00 0.00 70 1006.6
20260506150204 20 210 11.3 24.1 0.00 0.00 0.00 70 1006.8
20260506145703 20 180 11.3 24.1 0.00 0.00 0.00 71 1006.7
20260506144704 20 180 9.7 22.5 0.00 0.00 0.00 73 1006.9
20260506144203 19 180 16.1 27.4 0.00 0.00 0.00 73 1006.8
20260506142704 18 180 9.7 25.7 0.00 0.00 0.00 76 1006.8
20260506142204 18 180 9.7 25.7 0.00 0.00 0.00 76 1006.8
20260506141704 18 180 9.7 19.3 0.00 0.00 0.00 77 1006.8
20260506141203 18 180 14.5 22.5 0.00 0.00 0.00 76 1006.9
20260506140704 18 180 8.0 22.5 0.00 0.00 0.00 77 1006.7
20260506140203 18 180 16.1 32.2 0.00 0.00 0.00 77 1006.7
20260506135704 18 200 8.0 19.3 0.00 0.00 0.00 79 1006.7
20260506135203 18 200 11.3 19.3 0.00 0.00 0.00 80 1006.7
20260506134204 17 200 9.7 29.0 0.00 0.00 0.00 80 1006.9
20260506133204 17 200 6.4 19.3 0.00 0.00 0.00 82 1006.9
20260506132703 17 200 11.3 19.3 0.00 0.00 0.00 82 1006.8
20260506132204 17 200 11.3 24.1 0.00 0.00 0.00 83 1007.0
20260506131703 16 200 6.4 19.3 0.00 0.00 0.00 83 1007.4
20260506131204 16 200 8.0 24.1 0.00 0.00 0.00 85 1007.6
20260506130204 16 200 8.0 22.5 0.00 0.00 0.00 86 1007.6
20260506125203 16 210 9.7 25.7 0.00 0.00 0.00 85 1007.6
20260506124703 16 210 8.0 27.4 0.00 0.00 0.00 85 1007.5
20260506124204 16 210 14.5 25.7 0.00 0.00 0.00 85 1007.5
20260506123704 16 210 8.0 19.3 0.00 0.00 0.00 85 1007.4
20260506123204 16 210 8.0 19.3 0.00 0.00 0.00 87 1007.5
20260506122704 15 210 9.7 20.9 0.00 0.00 0.00 88 1007.6
20260506121703 15 210 11.3 22.5 0.00 0.00 0.00 87 1007.5
20260506121204 15 210 8.0 22.5 0.00 0.00 0.00 87 1007.8
20260506115703 15 220 14.5 27.4 0.00 0.00 0.00 88 1007.5
20260506115204 15 220 9.7 27.4 0.00 0.00 0.00 89 1007.6
20260506114704 14 220 9.7 20.9 0.00 0.00 0.00 89 1007.7
20260506114204 14 220 8.0 19.3 0.00 0.00 0.00 90 1007.6
20260506113704 14 220 9.7 20.9 0.00 0.00 0.00 90 1007.9
20260506113204 13 220 9.7 22.5 0.00 0.00 0.00 90 1007.8
20260506112704 13 220 11.3 22.5 0.00 0.00 0.00 91 1007.9
20260506112203 13 220 14.5 25.7 0.00 0.00 0.00 90 1007.7
20260506111204 13 220 9.7 20.9 0.00 0.00 0.00 90 1008.1
20260506110704 13 220 11.3 24.1 0.00 0.00 0.00 91 1008.1
20260506110204 13 220 9.7 24.1 0.00 0.00 0.00 91 1008.0
20260506105704 12 210 9.7 24.1 0.00 0.00 0.00 91 1007.8
20260506105203 12 210 8.0 22.5 0.00 0.00 0.00 91 1007.9